SIA31C WSSS-YSSY

Flight info

Callsign SIA31C
Flight time N/A
Altitude 35000
Route IDBUD1A IDBUD T24 SURGA M635 BLI/N0483F370 M635 ATMAP A576 POLEV/N0469F390 A576 APOMA Y52 VELGI Y105 TARAL Y59 RIVET
Aircraft A388/J-SADE2E3FGHIJ3J4J5M1RWXY/LB1D1

Departure

Time 2026-05-04 18:56
Airport Singapore Changi Airport (WSSS)

Arrival

Time N/A
Airport Sydney Kingsford Smith International Airport (YSSY)
Time Latitude Longitude Altitude Speed Heading
2026-05-04 17:21 1.36057 103.98717 29 ft 0 kts 113°
2026-05-04 18:30 1.36062 103.98706 28 ft 4 kts 114°
2026-05-04 18:31 1.36073 103.98681 27 ft 4 kts 115°
2026-05-04 18:31 1.36084 103.98658 26 ft 2 kts 113°
2026-05-04 18:31 1.36089 103.98645 27 ft 4 kts 195°
2026-05-04 18:31 1.36112 103.98656 26 ft 3 kts 204°
2026-05-04 18:32 1.36100 103.98651 27 ft 4 kts 199°
2026-05-04 18:32 1.36076 103.98641 28 ft 4 kts 213°
2026-05-04 18:32 1.36064 103.98625 28 ft 0 kts 239°
2026-05-04 18:40 1.36056 103.98611 29 ft 6 kts 239°
2026-05-04 18:40 1.36027 103.98562 29 ft 10 kts 239°
2026-05-04 18:40 1.35980 103.98503 29 ft 12 kts 213°
2026-05-04 18:41 1.35899 103.98468 29 ft 14 kts 202°
2026-05-04 18:41 1.35804 103.98428 29 ft 16 kts 202°
2026-05-04 18:41 1.35699 103.98384 29 ft 17 kts 202°
2026-05-04 18:41 1.35585 103.98336 29 ft 18 kts 203°
2026-05-04 18:42 1.35463 103.98284 29 ft 19 kts 203°
2026-05-04 18:42 1.35336 103.98230 29 ft 20 kts 203°
2026-05-04 18:42 1.35205 103.98174 29 ft 21 kts 202°
2026-05-04 18:42 1.35071 103.98118 29 ft 21 kts 202°
2026-05-04 18:43 1.34940 103.98063 29 ft 15 kts 202°
2026-05-04 18:43 1.34858 103.98028 29 ft 12 kts 202°
2026-05-04 18:43 1.34795 103.98046 29 ft 10 kts 123°
2026-05-04 18:43 1.34761 103.98118 29 ft 13 kts 112°
2026-05-04 18:44 1.34756 103.98129 29 ft 0 kts 113°
2026-05-04 18:46 1.34751 103.98142 29 ft 4 kts 112°
2026-05-04 18:47 1.34734 103.98182 29 ft 9 kts 112°
2026-05-04 18:47 1.34688 103.98292 29 ft 20 kts 113°
2026-05-04 18:47 1.34632 103.98423 29 ft 22 kts 113°
2026-05-04 18:47 1.34571 103.98568 29 ft 23 kts 112°
2026-05-04 18:48 1.34517 103.98696 29 ft 20 kts 112°
2026-05-04 18:48 1.34465 103.98819 29 ft 11 kts 112°
2026-05-04 18:48 1.34438 103.98883 29 ft 11 kts 112°
2026-05-04 18:48 1.34387 103.98936 29 ft 11 kts 173°
2026-05-04 18:49 1.34312 103.98910 29 ft 16 kts 206°
2026-05-04 18:49 1.34232 103.98872 29 ft 20 kts 205°
2026-05-04 18:49 1.34104 103.98815 29 ft 20 kts 202°
2026-05-04 18:49 1.33973 103.98760 29 ft 21 kts 202°
2026-05-04 18:50 1.33837 103.98703 29 ft 21 kts 202°
2026-05-04 18:50 1.33699 103.98645 29 ft 22 kts 203°
2026-05-04 18:50 1.33558 103.98585 29 ft 22 kts 202°
2026-05-04 18:50 1.33415 103.98526 29 ft 22 kts 202°
2026-05-04 18:51 1.33272 103.98466 29 ft 22 kts 202°
2026-05-04 18:51 1.33129 103.98406 29 ft 22 kts 203°
2026-05-04 18:51 1.33031 103.98364 29 ft 7 kts 203°
2026-05-04 18:51 1.32988 103.98356 29 ft 5 kts 148°
2026-05-04 18:52 1.32981 103.98361 29 ft 0 kts 144°
2026-05-04 18:53 1.32967 103.98373 29 ft 4 kts 131°
2026-05-04 18:53 1.32948 103.98408 29 ft 7 kts 112°
2026-05-04 18:53 1.32925 103.98462 29 ft 7 kts 112°
2026-05-04 18:54 1.32916 103.98487 29 ft 2 kts 89°
2026-05-04 18:54 1.32923 103.98505 29 ft 4 kts 53°
2026-05-04 18:54 1.32950 103.98525 29 ft 6 kts 19°
2026-05-04 18:54 1.32999 103.98544 29 ft 9 kts 22°
2026-05-04 18:55 1.33136 103.98601 29 ft 50 kts 22°
2026-05-04 18:55 1.34602 103.99221 29 ft 163 kts 23°
2026-05-04 18:55 1.35718 103.99681 236 ft 176 kts 22°
2026-05-04 18:56 1.36860 104.00137 669 ft 177 kts 22°
2026-05-04 18:56 1.38019 104.00600 1064 ft 181 kts 22°
2026-05-04 18:56 1.39194 104.01076 1477 ft 182 kts 22°
2026-05-04 18:56 1.40394 104.01555 1747 ft 193 kts 22°
2026-05-04 18:57 1.41679 104.02060 1963 ft 202 kts 21°
2026-05-04 18:57 1.43005 104.02552 2227 ft 205 kts 19°
2026-05-04 18:57 1.44384 104.03026 2359 ft 214 kts 18°
2026-05-04 18:57 1.45816 104.03485 2495 ft 220 kts 19°
2026-05-04 18:58 1.47213 104.04194 2674 ft 236 kts 36°
2026-05-04 18:58 1.48370 104.05394 2906 ft 255 kts 58°
2026-05-04 18:58 1.48983 104.07131 3122 ft 277 kts 83°
2026-05-04 18:58 1.48813 104.09043 3777 ft 278 kts 107°
2026-05-04 18:59 1.47943 104.10755 4516 ft 278 kts 124°
2026-05-04 18:59 1.46800 104.12309 5220 ft 278 kts 126°
2026-05-04 18:59 1.45752 104.13925 5970 ft 277 kts 121°
2026-05-04 18:59 1.44794 104.15602 6602 ft 280 kts 118°
2026-05-04 19:00 1.43900 104.17344 7196 ft 283 kts 116°
2026-05-04 19:00 1.43020 104.19112 7759 ft 287 kts 117°
2026-05-04 19:00 1.42125 104.20911 8369 ft 290 kts 117°
2026-05-04 19:00 1.41236 104.22733 8850 ft 294 kts 116°
2026-05-04 19:01 1.40357 104.24581 8968 ft 295 kts 115°
2026-05-04 19:01 1.39489 104.26439 8970 ft 295 kts 115°
2026-05-04 19:01 1.38629 104.28297 8972 ft 294 kts 115°
2026-05-04 19:01 1.37774 104.30149 8974 ft 294 kts 115°
2026-05-04 19:02 1.36917 104.32003 8974 ft 294 kts 115°
2026-05-04 19:02 1.36059 104.33859 8974 ft 294 kts 115°
2026-05-04 19:02 1.35202 104.35713 8973 ft 294 kts 115°
2026-05-04 19:02 1.34344 104.37568 8974 ft 294 kts 115°
2026-05-04 19:03 1.33415 104.39381 8972 ft 293 kts 127°
2026-05-04 19:03 1.31944 104.40727 8977 ft 293 kts 151°
2026-05-04 19:03 1.30040 104.41409 8976 ft 292 kts 166°
2026-05-04 19:03 1.28054 104.41876 8975 ft 292 kts 167°
2026-05-04 19:04 1.26073 104.42330 8978 ft 292 kts 167°
2026-05-04 19:04 1.24097 104.42803 8976 ft 292 kts 166°
2026-05-04 19:04 1.22126 104.43294 8975 ft 292 kts 166°
2026-05-04 19:04 1.20157 104.43797 8976 ft 292 kts 166°
2026-05-04 19:05 1.18189 104.44304 8975 ft 292 kts 166°
2026-05-04 19:05 1.16225 104.44811 8978 ft 292 kts 166°
2026-05-04 19:05 1.14253 104.45320 8976 ft 292 kts 166°
2026-05-04 19:05 1.12289 104.45827 8972 ft 292 kts 166°
2026-05-04 19:06 1.10320 104.46338 8979 ft 292 kts 165°
2026-05-04 19:06 1.08353 104.46876 9116 ft 294 kts 165°
2026-05-04 19:06 1.06376 104.47433 9621 ft 295 kts 165°
2026-05-04 19:06 1.04398 104.47991 10213 ft 298 kts 165°
2026-05-04 19:07 1.02342 104.48568 10383 ft 316 kts 164°
2026-05-04 19:07 1.00176 104.49172 10518 ft 332 kts 164°
2026-05-04 19:07 0.97902 104.49804 10724 ft 345 kts 164°
2026-05-04 19:07 0.95576 104.50451 11225 ft 348 kts 164°
2026-05-04 19:08 0.93234 104.51101 11727 ft 351 kts 164°
2026-05-04 19:08 0.90873 104.51757 12240 ft 354 kts 164°
2026-05-04 19:08 0.88493 104.52418 12760 ft 356 kts 163°
2026-05-04 19:08 0.86127 104.53076 13270 ft 359 kts 163°
2026-05-04 19:09 0.83709 104.53747 13784 ft 362 kts 163°